Hourly Data Report for October 04, 2017

All times are specified in Local Standard Time (LST). Add 1 hour to adjust for Daylight Saving Time where and when it is observed.

HALL BEACH A
NUNAVUT

68°46'33.000" N
81°14'33.000" W
9.10 m
2402354
71293
YUX

Download Data

Hourly Data (October 2017)
Hourly Data Report for October 4, 2017
Temp Definition
°C
Dew Point Temp Definition
°C
Rel Hum Definition
%
Wind Dir Definition
10's deg

Wind Spd Definition
km/h
Visibility Definition
km
Stn Press Definition
kPa
Hmdx Definition


Wind Chill Definition


Weather Definition


TIME
00:00 Legend Double Dagger -5.8 -7.6 87 23 34 16.1 98.06   -15 Snow
01:00 Legend Double Dagger -5.5 -6.7 91 23 35 6.4 97.98   -14 Snow
02:00 Legend Double Dagger -5.1 -6.2 92 22 30 4.8 97.91   -13 Snow
03:00 Legend Double Dagger -4.5 -6.1 89 22 26 16.1 97.84   -12 Snow
04:00 Legend Double Dagger -4.4 -5.7 91 23 17 9.7 97.79   -10 Snow
05:00 Legend Double Dagger -4.6 -5.6 93 21 18 4.0 97.77   -11 Snow
06:00 Legend Double Dagger -4.2 -5.6 90 21 17 16.1 97.73   -10 Snow
07:00 Legend Double Dagger -4.4 -5.2 94 22 18 16.1 97.72   -10 LegendNANA
08:00 Legend Double Dagger -4.6 -5.6 93 24 15 8.1 97.73   -10 Snow
09:00 Legend Double Dagger -6.8 -7.9 92 21 13 16.1 97.72   -12 LegendNANA
10:00 Legend Double Dagger -7.2 -9.1 86 21 21 16.1 97.71   -15 LegendNANA
11:00 Legend Double Dagger -4.9 -6.7 87 20 11 16.1 97.74   -9 LegendNANA
12:00 Legend Double Dagger -4.4 -6.1 88 16 9 16.1 97.75   -8 LegendNANA
13:00 Legend Double Dagger -3.6 -6.2 83 21 5 16.1 97.75   -6 LegendNANA
14:00 Legend Double Dagger -3.2 -6.3 79 16 13 16.1 97.74   -8 LegendNANA
15:00 Legend Double Dagger -3.5 -4.9 90 16 4 2.0 97.76   -5 Snow
16:00 Legend Double Dagger -3.5 -4.8 91 24 8 16.1 97.80   -7 Snow
17:00 Legend Double Dagger -4.0 -5.4 90 16 8 16.1 97.84   -7 LegendNANA
18:00 Legend Double Dagger -2.6 -6.1 77 13 22 16.1 97.87   -9 LegendNANA
19:00 Legend Double Dagger -2.8 -5.2 84 11 30 12.9 97.92   -10 Snow
20:00 Legend Double Dagger -3.1 -4.9 88 14 21 16.1 97.96   -9 Snow
21:00 Legend Double Dagger -2.8 -5.0 85 12 22 16.1 98.01   -9 Snow
22:00 Legend Double Dagger -2.6 -4.5 87 12 26 9.7 98.06   -9 Snow
23:00 Legend Double Dagger -2.4 -4.7 84 13 32 16.1 98.08   -10 Snow

Notes on Data Quality.

Legend

  • E = Estimated
  • M = Missing
  • NA = Not Available
  • ‡ = Partner data that is not subject to review by the National Climate Archives
Date modified: